Weather History for Fort Lewis, WA

Change the Weather History Date:

Saturday, May 17, 2014

  Actual Average Record
Temperature  
Mean Temperature 58 °F -  
Max Temperature 67 °F 64 °F 92 °F (2008)
Min Temperature 48 °F 43 °F 32 °F (2011)
Degree Days  
Heating Degree Days 7    
Growing Degree Days 8 (Base 50)    
Moisture  
Dew Point 48 °F    
Average Humidity 71    
Maximum Humidity 94    
Minimum Humidity 46    
Precipitation  
Precipitation 0.00 in - - ()
Sea Level Pressure  
Sea Level Pressure 29.98 in    
Wind  
Wind Speed 7 mph (SSW)    
Max Wind Speed 12 mph    
Max Gust Speed -    
Visibility 10 miles    
Events Rain    
Averages and records for this station are not official NWS values.
T = Trace of Precipitation, MM = Missing Value Source: NWS Daily Summary

Daily Weather History Graph

Daily Weather History Graph

Search for Another Location

Airport:

Trip Planner

Search our weather history database for the weather conditions in past years. The results will help you decide how hot, cold, wet, or windy it might be!

Date:

Astronomy

May. 17, 2014 Rise Set
Actual Time 5:32 AM PDT 8:42 PM PDT
Civil Twilight 4:55 AM PDT 9:18 PM PDT
Nautical Twilight 4:08 AM PDT 10:06 PM PDT
Astronomical Twilight 3:10 AM PDT 11:05 PM PDT
Moon 11:44 PM PDT (5/17) 8:21 AM PDT (5/17)
Length of Visible Light 16h 22m
Length of Day
15h 09m
Waning Gibbous, 88% of the Moon is Illuminated
May 17
Waning Gibbous
May 21
Last Quarter
May 28
New
Jun 5
First Quarter
Jun 12
Full

Hourly Weather History & Observations

Time (PDT) Temp. Dew Point Humidity Pressure Visibility Wind Dir Wind Speed Gust Speed Precip Events Conditions
12:43 AM 53.6 °F 48.2 °F 82% 30.09 in 10.0 mi SSE 6.9 mph - N/A   Overcast
12:58 AM 54.5 °F 48.4 °F 80% 30.10 in 10.0 mi South 8.1 mph - N/A   Overcast
1:58 AM 54.7 °F 49.5 °F 83% 30.09 in 10.0 mi South 8.1 mph - N/A   Overcast
2:58 AM 54.5 °F 49.5 °F 83% 30.08 in 10.0 mi SSE 6.9 mph - N/A   Overcast
3:58 AM 54.3 °F 49.3 °F 83% 30.07 in 10.0 mi SSE 5.8 mph - N/A   Overcast
4:58 AM 53.6 °F 49.3 °F 85% 30.06 in 10.0 mi South 8.1 mph - N/A   Overcast
5:58 AM 53.1 °F 49.1 °F 86% 30.06 in 10.0 mi South 8.1 mph - N/A   Overcast
6:13 AM 51.8 °F 50.0 °F 94% 30.05 in 10.0 mi South 4.6 mph - N/A   Overcast
6:42 AM 53.6 °F 50.0 °F 88% 30.05 in 10.0 mi South 5.8 mph - N/A Rain Light Rain
6:58 AM 52.9 °F 49.1 °F 87% 30.06 in 10.0 mi South 5.8 mph - 0.00 in   Overcast
7:26 AM 53.6 °F 50.0 °F 88% 30.04 in 10.0 mi SSE 8.1 mph - N/A   Overcast
7:58 AM 54.0 °F 50.0 °F 86% 30.05 in 10.0 mi SSE 6.9 mph - N/A   Overcast
8:58 AM 56.8 °F 49.5 °F 76% 30.04 in 10.0 mi SSE 5.8 mph - N/A   Mostly Cloudy
9:13 AM 57.2 °F 50.0 °F 77% 30.02 in 10.0 mi ESE 5.8 mph - N/A   Mostly Cloudy
9:58 AM 58.1 °F 47.8 °F 69% 30.02 in 10.0 mi South 5.8 mph - N/A   Overcast
10:54 AM 60.8 °F 48.2 °F 63% 30.00 in 10.0 mi Variable 4.6 mph - N/A Rain Light Rain
10:58 AM 60.1 °F 48.7 °F 66% 30.01 in 10.0 mi East 5.8 mph - 0.00 in Rain Light Rain
11:05 AM 60.8 °F 48.2 °F 63% 30.00 in 10.0 mi SSE 6.9 mph - N/A   Overcast
11:50 AM 60.8 °F 46.4 °F 59% 29.99 in 10.0 mi SW 9.2 mph - N/A   Overcast
11:58 AM 61.5 °F 46.8 °F 58% 30.00 in 10.0 mi SSW 9.2 mph - 0.00 in   Overcast
12:58 PM 63.3 °F 47.1 °F 56% 30.00 in 10.0 mi WSW 9.2 mph - N/A   Overcast
1:55 PM 62.6 °F 46.4 °F 55% 29.97 in 10.0 mi SW 9.2 mph - N/A Rain Light Rain
1:58 PM 63.5 °F 47.3 °F 56% 29.98 in 10.0 mi WSW 8.1 mph - 0.00 in Rain Light Rain
2:58 PM 66.4 °F 47.3 °F 50% 29.96 in 10.0 mi West 6.9 mph - N/A   Mostly Cloudy
3:58 PM 66.0 °F 47.7 °F 52% 29.94 in 10.0 mi West 6.9 mph - N/A   Mostly Cloudy
4:55 PM 68.0 °F 46.4 °F 46% 29.92 in 10.0 mi SW 10.4 mph - N/A   Mostly Cloudy
5:58 PM 63.0 °F 49.5 °F 61% 29.92 in 10.0 mi South 10.4 mph - N/A   Overcast
6:58 PM 64.2 °F 46.8 °F 53% 29.90 in 10.0 mi WNW 4.6 mph - N/A   Partly Cloudy
7:43 PM 64.4 °F 46.4 °F 52% 29.88 in 10.0 mi West 11.5 mph - N/A   Drizzle
7:49 PM 62.6 °F 46.4 °F 55% 29.88 in 10.0 mi West 10.4 mph - N/A   Scattered Clouds
7:58 PM 62.8 °F 45.9 °F 54% 29.89 in 10.0 mi West 8.1 mph - 0.00 in   Partly Cloudy
8:58 PM 59.0 °F 46.4 °F 63% 29.89 in 10.0 mi West 6.9 mph - N/A   Clear
9:58 PM 57.4 °F 46.8 °F 68% 29.90 in 10.0 mi SW 2.3 mph - N/A   Clear
10:50 PM 55.4 °F 46.4 °F 72% 29.88 in 10.0 mi West 1.2 mph - N/A   Drizzle
10:58 PM 55.6 °F 46.8 °F 72% 29.89 in 10.0 mi West 2.3 mph - 0.00 in   Drizzle
11:26 PM 50.0 °F 46.4 °F 87% 29.88 in 10.0 mi SSE 3.5 mph - N/A   Clear
11:53 PM 48.2 °F 46.4 °F 93% 29.88 in 10.0 mi SE 5.8 mph - N/A   Drizzle
11:58 PM 48.4 °F 45.7 °F 90% 29.88 in 10.0 mi SE 4.6 mph - 0.00 in   Drizzle